Time,TemperatureF,DewpointF,PressureIn,WindDirection,WindDirectionDegrees,WindSpeedMPH,WindSpeedGustMPH,Humidity,HourlyPrecipIn,Conditions,Clouds,dailyrainin,SoftwareType,DateUTC
2013-04-27 00:00:00,68.8,63.8,30.23,SE,142,0.0,0.0,84,0.00,,,0.00,Wunderground v.1.15,2013-04-27 04:00:00,
2013-04-27 00:05:00,68.6,63.6,30.23,SE,142,0.0,0.0,84,0.00,,,0.00,Wunderground v.1.15,2013-04-27 04:05:00,
2013-04-27 00:10:00,68.6,63.6,30.23,SE,142,0.0,0.0,84,0.00,,,0.00,Wunderground v.1.15,2013-04-27 04:10:00,
2013-04-27 00:15:00,68.4,63.7,30.23,SE,142,0.0,0.0,85,0.00,,,0.00,Wunderground v.1.15,2013-04-27 04:15:00,
2013-04-27 00:20:00,68.1,63.4,30.23,SE,142,0.0,0.0,85,0.00,,,0.00,Wunderground v.1.15,2013-04-27 04:20:00,
2013-04-27 00:25:00,68.0,63.7,30.23,SE,142,0.0,0.0,86,0.00,,,0.00,Wunderground v.1.15,2013-04-27 04:25:00,
2013-04-27 00:30:00,68.0,63.7,30.23,SE,142,0.0,0.0,86,0.00,,,0.00,Wunderground v.1.15,2013-04-27 04:30:00,
2013-04-27 00:35:00,68.0,63.7,30.22,SE,142,0.0,0.0,86,0.00,,,0.00,Wunderground v.1.15,2013-04-27 04:35:00,
2013-04-27 00:40:00,68.1,63.8,30.22,SE,142,0.0,0.0,86,0.00,,,0.00,Wunderground v.1.15,2013-04-27 04:40:00,
2013-04-27 00:45:00,68.2,63.9,30.22,SE,142,0.0,0.0,86,0.00,,,0.00,Wunderground v.1.15,2013-04-27 04:45:00,
2013-04-27 00:50:00,68.1,63.8,30.23,SE,142,0.0,0.0,86,0.00,,,0.00,Wunderground v.1.15,2013-04-27 04:50:00,
2013-04-27 00:55:00,68.0,64.0,30.22,SE,142,0.0,0.0,87,0.00,,,0.00,Wunderground v.1.15,2013-04-27 04:55:00,
2013-04-27 01:00:00,67.9,63.9,30.22,SE,142,0.0,0.0,87,0.00,,,0.00,Wunderground v.1.15,2013-04-27 05:00:00,
2013-04-27 01:10:00,68.0,64.0,30.22,SE,142,0.0,0.0,87,0.00,,,0.00,Wunderground v.1.15,2013-04-27 05:10:00,
2013-04-27 01:15:00,68.1,64.1,30.22,SE,142,0.0,0.0,87,0.00,,,0.00,Wunderground v.1.15,2013-04-27 05:15:00,
2013-04-27 01:20:00,68.3,64.3,30.22,SE,142,0.0,0.0,87,0.00,,,0.00,Wunderground v.1.15,2013-04-27 05:20:00,
2013-04-27 01:25:00,68.4,64.4,30.21,SE,142,0.0,0.0,87,0.00,,,0.00,Wunderground v.1.15,2013-04-27 05:25:00,
2013-04-27 01:30:00,68.5,64.5,30.21,SE,142,0.0,0.0,87,0.00,,,0.00,Wunderground v.1.15,2013-04-27 05:30:00,
2013-04-27 01:35:00,68.5,64.5,30.20,SE,142,0.0,0.0,87,0.00,,,0.00,Wunderground v.1.15,2013-04-27 05:35:00,
2013-04-27 01:45:00,68.4,64.4,30.21,SE,142,0.0,0.0,87,0.00,,,0.00,Wunderground v.1.15,2013-04-27 05:45:00,
2013-04-27 01:50:00,68.3,64.3,30.20,SE,142,0.0,0.0,87,0.00,,,0.00,Wunderground v.1.15,2013-04-27 05:50:00,
2013-04-27 01:55:00,68.2,64.5,30.20,SE,142,0.0,0.0,88,0.00,,,0.00,Wunderground v.1.15,2013-04-27 05:55:00,
2013-04-27 02:00:00,67.8,64.4,30.20,SE,142,0.0,0.0,89,0.00,,,0.00,Wunderground v.1.15,2013-04-27 06:00:00,
2013-04-27 02:10:00,67.4,64.0,30.19,SE,142,0.0,0.0,89,0.00,,,0.00,Wunderground v.1.15,2013-04-27 06:10:00,
2013-04-27 02:20:00,67.1,64.1,30.19,SE,142,0.0,0.0,90,0.00,,,0.00,Wunderground v.1.15,2013-04-27 06:20:00,
2013-04-27 02:25:00,66.9,64.2,30.19,SE,142,0.0,0.0,91,0.00,,,0.00,Wunderground v.1.15,2013-04-27 06:25:00,
2013-04-27 02:30:00,66.7,64.0,30.19,SE,142,0.0,0.0,91,0.00,,,0.00,Wunderground v.1.15,2013-04-27 06:30:00,
2013-04-27 02:35:00,66.6,63.9,30.19,SE,142,0.0,0.0,91,0.00,,,0.00,Wunderground v.1.15,2013-04-27 06:35:00,
2013-04-27 02:40:00,66.6,63.9,30.19,SE,142,0.0,0.0,91,0.00,,,0.00,Wunderground v.1.15,2013-04-27 06:40:00,
2013-04-27 02:50:00,66.1,63.7,30.19,SE,142,0.0,0.0,92,0.00,,,0.00,Wunderground v.1.15,2013-04-27 06:50:00,
2013-04-27 02:55:00,65.9,63.5,30.19,SE,142,0.0,0.0,92,0.00,,,0.00,Wunderground v.1.15,2013-04-27 06:55:00,
2013-04-27 03:00:00,65.7,63.3,30.18,SE,142,0.0,0.0,92,0.00,,,0.00,Wunderground v.1.15,2013-04-27 07:00:00,
2013-04-27 03:10:00,65.6,63.5,30.18,SE,142,0.0,0.0,93,0.00,,,0.00,Wunderground v.1.15,2013-04-27 07:10:00,
2013-04-27 03:15:00,65.6,63.5,30.18,SE,142,0.0,0.0,93,0.00,,,0.00,Wunderground v.1.15,2013-04-27 07:15:00,
2013-04-27 03:25:00,65.5,63.4,30.17,SE,142,0.0,0.0,93,0.00,,,0.00,Wunderground v.1.15,2013-04-27 07:25:00,
2013-04-27 03:30:00,65.4,63.3,30.18,SE,142,0.0,0.0,93,0.00,,,0.00,Wunderground v.1.15,2013-04-27 07:30:00,
2013-04-27 03:35:00,65.3,63.2,30.18,SE,142,0.0,0.0,93,0.00,,,0.00,Wunderground v.1.15,2013-04-27 07:35:00,
2013-04-27 03:40:00,65.2,63.1,30.18,SE,142,0.0,0.0,93,0.00,,,0.00,Wunderground v.1.15,2013-04-27 07:40:00,
2013-04-27 03:45:00,65.1,63.0,30.18,SE,142,0.0,0.0,93,0.00,,,0.00,Wunderground v.1.15,2013-04-27 07:45:00,
2013-04-27 03:50:00,65.2,63.4,30.17,SE,142,0.0,0.0,94,0.00,,,0.00,Wunderground v.1.15,2013-04-27 07:50:00,
2013-04-27 04:00:00,65.0,63.2,30.17,SE,142,0.0,0.0,94,0.00,,,0.00,Wunderground v.1.15,2013-04-27 08:00:00,
2013-04-27 04:10:00,64.9,63.1,30.17,SE,142,0.0,0.0,94,0.00,,,0.00,Wunderground v.1.15,2013-04-27 08:10:00,
2013-04-27 04:20:00,64.9,63.1,30.17,SE,142,0.0,0.0,94,0.00,,,0.00,Wunderground v.1.15,2013-04-27 08:20:00,
2013-04-27 04:25:00,64.9,63.1,30.16,SE,142,0.0,0.0,94,0.00,,,0.00,Wunderground v.1.15,2013-04-27 08:25:00,
2013-04-27 04:30:00,64.7,62.9,30.16,SE,142,0.0,0.0,94,0.00,,,0.00,Wunderground v.1.15,2013-04-27 08:30:00,
2013-04-27 04:35:00,64.7,62.9,30.16,SE,142,0.0,0.0,94,0.00,,,0.00,Wunderground v.1.15,2013-04-27 08:35:00,
2013-04-27 04:40:00,64.8,63.3,30.16,SE,142,0.0,0.0,95,0.00,,,0.00,Wunderground v.1.15,2013-04-27 08:40:00,
2013-04-27 04:45:00,64.7,63.2,30.16,SE,142,0.0,0.0,95,0.00,,,0.00,Wunderground v.1.15,2013-04-27 08:45:00,
2013-04-27 04:50:00,64.8,63.3,30.15,SE,142,0.0,0.0,95,0.00,,,0.00,Wunderground v.1.15,2013-04-27 08:50:00,
2013-04-27 04:55:00,64.7,62.9,30.15,SE,142,0.0,0.0,94,0.00,,,0.00,Wunderground v.1.15,2013-04-27 08:55:00,
2013-04-27 05:00:00,64.6,62.8,30.15,SE,142,0.0,0.0,94,0.00,,,0.00,Wunderground v.1.15,2013-04-27 09:00:00,
2013-04-27 05:10:00,64.6,62.8,30.15,SE,142,0.0,0.0,94,0.00,,,0.00,Wunderground v.1.15,2013-04-27 09:10:00,
2013-04-27 05:15:00,64.6,62.8,30.15,SE,142,0.0,0.0,94,0.00,,,0.00,Wunderground v.1.15,2013-04-27 09:15:00,
2013-04-27 05:20:00,64.7,62.9,30.15,SE,142,0.0,0.0,94,0.00,,,0.00,Wunderground v.1.15,2013-04-27 09:20:00,
2013-04-27 05:25:00,64.7,62.9,30.15,SE,142,0.0,0.0,94,0.00,,,0.00,Wunderground v.1.15,2013-04-27 09:25:00,
2013-04-27 05:30:00,64.7,62.9,30.15,SE,142,0.0,0.0,94,0.00,,,0.00,Wunderground v.1.15,2013-04-27 09:30:00,
2013-04-27 05:40:00,64.7,62.9,30.15,SE,142,0.0,0.0,94,0.00,,,0.00,Wunderground v.1.15,2013-04-27 09:40:00,
2013-04-27 05:45:00,64.8,63.0,30.15,SE,142,0.0,0.0,94,0.00,,,0.00,Wunderground v.1.15,2013-04-27 09:45:00,
2013-04-27 05:50:00,64.8,63.0,30.15,SE,142,0.0,0.0,94,0.00,,,0.00,Wunderground v.1.15,2013-04-27 09:50:00,
2013-04-27 05:55:00,64.8,63.0,30.16,SE,142,0.0,0.0,94,0.00,,,0.00,Wunderground v.1.15,2013-04-27 09:55:00,
2013-04-27 06:00:00,64.8,63.0,30.16,SE,142,0.0,0.0,94,0.00,,,0.00,Wunderground v.1.15,2013-04-27 10:00:00,
2013-04-27 06:10:00,64.8,62.7,30.16,SE,142,0.0,0.0,93,0.00,,,0.00,Wunderground v.1.15,2013-04-27 10:10:00,
2013-04-27 06:15:00,64.9,62.8,30.16,SE,142,0.0,0.0,93,0.00,,,0.00,Wunderground v.1.15,2013-04-27 10:15:00,
2013-04-27 06:20:00,64.9,62.8,30.16,SE,142,0.0,0.0,93,0.00,,,0.00,Wunderground v.1.15,2013-04-27 10:20:00,
2013-04-27 06:25:00,64.8,62.7,30.17,SE,142,0.0,0.0,93,0.00,,,0.00,Wunderground v.1.15,2013-04-27 10:25:00,
2013-04-27 06:30:00,64.8,62.7,30.17,SE,142,0.0,0.0,93,0.00,,,0.00,Wunderground v.1.15,2013-04-27 10:30:00,
2013-04-27 06:35:00,64.7,62.6,30.16,SE,142,0.0,0.0,93,0.00,,,0.00,Wunderground v.1.15,2013-04-27 10:35:00,
2013-04-27 06:45:00,64.7,62.6,30.17,SE,141,0.0,0.0,93,0.00,,,0.00,Wunderground v.1.15,2013-04-27 10:45:00,
2013-04-27 06:50:00,64.7,62.6,30.17,SE,141,0.0,0.0,93,0.00,,,0.00,Wunderground v.1.15,2013-04-27 10:50:00,
2013-04-27 06:55:00,64.8,62.7,30.17,SE,141,0.0,0.0,93,0.00,,,0.00,Wunderground v.1.15,2013-04-27 10:55:00,
2013-04-27 07:00:00,64.8,62.7,30.17,SE,141,0.0,0.0,93,0.00,,,0.00,Wunderground v.1.15,2013-04-27 11:00:00,
2013-04-27 07:10:00,64.8,62.7,30.18,SE,141,0.0,0.0,93,0.00,,,0.00,Wunderground v.1.15,2013-04-27 11:10:00,
2013-04-27 07:20:00,64.7,62.6,30.17,SE,141,0.0,0.0,93,0.00,,,0.00,Wunderground v.1.15,2013-04-27 11:20:00,
2013-04-27 07:25:00,64.5,62.4,30.17,SE,141,0.0,0.0,93,0.00,,,0.00,Wunderground v.1.15,2013-04-27 11:25:00,
2013-04-27 07:30:00,64.3,62.2,30.18,SE,141,0.0,0.0,93,0.00,,,0.00,Wunderground v.1.15,2013-04-27 11:30:00,
2013-04-27 07:35:00,64.3,62.5,30.18,SE,141,0.0,0.0,94,0.00,,,0.00,Wunderground v.1.15,2013-04-27 11:35:00,
2013-04-27 07:40:00,64.5,62.7,30.18,SE,141,0.0,0.0,94,0.00,,,0.00,Wunderground v.1.15,2013-04-27 11:40:00,
2013-04-27 07:50:00,65.1,63.3,30.18,SE,141,0.0,0.0,94,0.00,,,0.00,Wunderground v.1.15,2013-04-27 11:50:00,
2013-04-27 08:00:00,66.6,64.5,30.18,SE,141,0.0,0.0,93,0.00,,,0.00,Wunderground v.1.15,2013-04-27 12:00:00,
2013-04-27 08:10:00,67.3,64.3,30.18,SE,141,0.0,0.0,90,0.00,,,0.00,Wunderground v.1.15,2013-04-27 12:10:00,
2013-04-27 08:15:00,67.6,64.6,30.18,SE,141,0.0,0.0,90,0.00,,,0.00,Wunderground v.1.15,2013-04-27 12:15:00,
2013-04-27 08:20:00,68.1,65.1,30.18,SE,142,0.0,0.0,90,0.00,,,0.00,Wunderground v.1.15,2013-04-27 12:20:00,
2013-04-27 08:30:00,69.0,65.0,30.19,SE,143,0.0,0.0,87,0.00,,,0.00,Wunderground v.1.15,2013-04-27 12:30:00,
2013-04-27 08:35:00,69.5,65.1,30.18,SE,145,0.0,0.0,86,0.00,,,0.00,Wunderground v.1.15,2013-04-27 12:35:00,
2013-04-27 08:40:00,69.9,65.5,30.18,SE,146,0.0,2.0,86,0.00,,,0.00,Wunderground v.1.15,2013-04-27 12:40:00,
2013-04-27 08:45:00,70.4,65.0,30.18,SSE,162,1.0,4.0,83,0.00,,,0.00,Wunderground v.1.15,2013-04-27 12:45:00,
2013-04-27 08:55:00,71.0,65.2,30.18,South,175,3.0,3.0,82,0.00,,,0.00,Wunderground v.1.15,2013-04-27 12:55:00,
2013-04-27 09:00:00,71.8,65.3,30.18,South,176,1.0,1.0,80,0.00,,,0.00,Wunderground v.1.15,2013-04-27 13:00:00,
2013-04-27 09:10:00,73.0,64.6,30.18,SSE,167,3.0,5.0,75,0.00,,,0.00,Wunderground v.1.15,2013-04-27 13:10:00,
2013-04-27 09:15:00,73.5,64.7,30.18,South,175,5.0,5.0,74,0.00,,,0.00,Wunderground v.1.15,2013-04-27 13:15:00,
2013-04-27 09:20:00,74.2,64.2,30.18,SSE,168,4.0,4.0,71,0.00,,,0.00,Wunderground v.1.15,2013-04-27 13:20:00,
2013-04-27 09:30:00,75.3,64.0,30.18,SSE,161,5.0,7.0,68,0.00,,,0.00,Wunderground v.1.15,2013-04-27 13:30:00,
2013-04-27 09:35:00,75.7,64.0,30.18,South,181,6.0,8.0,67,0.00,,,0.00,Wunderground v.1.15,2013-04-27 13:35:00,
2013-04-27 09:40:00,75.8,63.6,30.18,South,188,6.0,6.0,66,0.00,,,0.00,Wunderground v.1.15,2013-04-27 13:40:00,
2013-04-27 09:50:00,76.3,63.7,30.18,SSE,147,5.0,9.0,65,0.00,,,0.00,Wunderground v.1.15,2013-04-27 13:50:00,
2013-04-27 09:55:00,76.5,63.9,30.18,SSE,163,6.0,9.0,65,0.00,,,0.00,Wunderground v.1.15,2013-04-27 13:55:00,
2013-04-27 10:00:00,77.0,63.4,30.18,SSW,192,5.0,9.0,63,0.00,,,0.00,Wunderground v.1.15,2013-04-27 14:00:00,
2013-04-27 10:10:00,77.4,63.8,30.18,South,176,7.0,8.0,63,0.00,,,0.00,Wunderground v.1.15,2013-04-27 14:10:00,
2013-04-27 10:15:00,77.8,63.3,30.18,ESE,122,7.0,8.0,61,0.00,,,0.00,Wunderground v.1.15,2013-04-27 14:15:00,
2013-04-27 10:20:00,77.5,63.5,30.18,ESE,105,9.0,9.0,62,0.00,,,0.00,Wunderground v.1.15,2013-04-27 14:20:00,
2013-04-27 10:25:00,77.6,63.5,30.18,SE,138,10.0,11.0,62,0.00,,,0.00,Wunderground v.1.15,2013-04-27 14:25:00,
2013-04-27 10:30:00,77.6,63.1,30.19,SSE,153,10.0,10.0,61,0.00,,,0.00,Wunderground v.1.15,2013-04-27 14:30:00,
2013-04-27 10:40:00,78.4,63.8,30.18,South,181,7.0,7.0,61,0.00,,,0.00,Wunderground v.1.15,2013-04-27 14:40:00,
2013-04-27 10:45:00,79.0,63.9,30.19,South,169,5.0,8.0,60,0.00,,,0.00,Wunderground v.1.15,2013-04-27 14:45:00,
2013-04-27 10:55:00,78.8,63.3,30.19,ESE,123,7.0,10.0,59,0.00,,,0.00,Wunderground v.1.15,2013-04-27 14:55:00,
2013-04-27 11:00:00,79.2,63.6,30.18,SSE,163,7.0,7.0,59,0.00,,,0.00,Wunderground v.1.15,2013-04-27 15:00:00,
2013-04-27 11:10:00,79.7,63.6,30.18,SW,222,5.0,5.0,58,0.00,,,0.00,Wunderground v.1.15,2013-04-27 15:10:00,
2013-04-27 11:15:00,80.1,64.0,30.18,SSW,200,4.0,9.0,58,0.00,,,0.00,Wunderground v.1.15,2013-04-27 15:15:00,
2013-04-27 11:20:00,79.8,63.2,30.18,SSE,165,5.0,5.0,57,0.00,,,0.00,Wunderground v.1.15,2013-04-27 15:20:00,
2013-04-27 11:25:00,80.6,62.4,30.19,South,170,6.0,8.0,54,0.00,,,0.00,Wunderground v.1.15,2013-04-27 15:25:00,
2013-04-27 11:30:00,80.6,62.4,30.19,SSE,156,5.0,9.0,54,0.00,,,0.00,Wunderground v.1.15,2013-04-27 15:30:00,
2013-04-27 11:35:00,80.4,62.8,30.19,SSE,155,6.0,9.0,55,0.00,,,0.00,Wunderground v.1.15,2013-04-27 15:35:00,
2013-04-27 11:45:00,80.8,62.1,30.19,SSW,194,7.0,12.0,53,0.00,,,0.00,Wunderground v.1.15,2013-04-27 15:45:00,
2013-04-27 11:55:00,81.0,62.8,30.19,SSE,155,8.0,9.0,54,0.00,,,0.00,Wunderground v.1.15,2013-04-27 15:55:00,
2013-04-27 12:00:00,82.1,63.3,30.19,South,180,6.0,10.0,53,0.00,,,0.00,Wunderground v.1.15,2013-04-27 16:00:00,
2013-04-27 12:10:00,82.1,62.2,30.19,SE,128,7.0,12.0,51,0.00,,,0.00,Wunderground v.1.15,2013-04-27 16:10:00,
2013-04-27 12:20:00,81.9,62.0,30.18,SSW,194,7.0,7.0,51,0.00,,,0.00,Wunderground v.1.15,2013-04-27 16:20:00,
2013-04-27 12:25:00,82.2,63.4,30.18,South,180,6.0,7.0,53,0.00,,,0.00,Wunderground v.1.15,2013-04-27 16:25:00,
2013-04-27 12:30:00,82.6,63.2,30.17,NNW,329,4.0,4.0,52,0.00,,,0.00,Wunderground v.1.15,2013-04-27 16:30:00,
2013-04-27 12:35:00,83.3,63.3,30.17,South,188,3.0,6.0,51,0.00,,,0.00,Wunderground v.1.15,2013-04-27 16:35:00,
2013-04-27 12:40:00,83.6,62.4,30.17,South,171,4.0,9.0,49,0.00,,,0.00,Wunderground v.1.15,2013-04-27 16:40:00,
2013-04-27 12:45:00,83.1,62.5,30.17,South,173,5.0,9.0,50,0.00,,,0.00,Wunderground v.1.15,2013-04-27 16:45:00,
2013-04-27 12:55:00,84.1,62.9,30.16,South,182,1.0,6.0,49,0.00,,,0.00,Wunderground v.1.15,2013-04-27 16:55:00,
2013-04-27 13:00:00,83.9,62.1,30.16,South,182,2.0,8.0,48,0.00,,,0.00,Wunderground v.1.15,2013-04-27 17:00:00,
2013-04-27 13:10:00,83.5,59.9,30.16,South,173,7.0,7.0,45,0.00,,,0.00,Wunderground v.1.15,2013-04-27 17:10:00,
2013-04-27 13:15:00,84.1,61.1,30.16,South,180,8.0,8.0,46,0.00,,,0.00,Wunderground v.1.15,2013-04-27 17:15:00,
2013-04-27 13:20:00,85.1,62.0,30.16,SSE,167,3.0,9.0,46,0.00,,,0.00,Wunderground v.1.15,2013-04-27 17:20:00,
2013-04-27 13:30:00,84.3,60.6,30.16,SSW,195,5.0,5.0,45,0.00,,,0.00,Wunderground v.1.15,2013-04-27 17:30:00,
2013-04-27 13:35:00,85.0,62.5,30.16,South,178,3.0,6.0,47,0.00,,,0.00,Wunderground v.1.15,2013-04-27 17:35:00,
2013-04-27 13:40:00,84.4,61.4,30.16,SE,130,4.0,4.0,46,0.00,,,0.00,Wunderground v.1.15,2013-04-27 17:40:00,
2013-04-27 13:45:00,83.9,61.5,30.15,SSW,193,5.0,11.0,47,0.00,,,0.00,Wunderground v.1.15,2013-04-27 17:45:00,
2013-04-27 13:55:00,83.8,61.4,30.15,SE,145,8.0,8.0,47,0.00,,,0.00,Wunderground v.1.15,2013-04-27 17:55:00,
2013-04-27 14:00:00,84.9,61.8,30.14,South,190,7.0,7.0,46,0.00,,,0.00,Wunderground v.1.15,2013-04-27 18:00:00,
2013-04-27 14:10:00,85.0,61.3,30.14,SSW,202,5.0,5.0,45,0.00,,,0.00,Wunderground v.1.15,2013-04-27 18:10:00,
2013-04-27 14:15:00,85.1,61.4,30.15,SSE,148,4.0,10.0,45,0.00,,,0.00,Wunderground v.1.15,2013-04-27 18:15:00,
2013-04-27 14:20:00,84.8,61.1,30.14,South,191,7.0,7.0,45,0.00,,,0.00,Wunderground v.1.15,2013-04-27 18:20:00,
2013-04-27 14:25:00,85.0,61.3,30.14,SSW,195,6.0,13.0,45,0.00,,,0.00,Wunderground v.1.15,2013-04-27 18:25:00,
2013-04-27 14:35:00,84.9,61.8,30.14,South,181,7.0,13.0,46,0.00,,,0.00,Wunderground v.1.15,2013-04-27 18:35:00,
2013-04-27 14:40:00,84.5,60.8,30.13,SSW,192,8.0,8.0,45,0.00,,,0.00,Wunderground v.1.15,2013-04-27 18:40:00,
2013-04-27 14:45:00,84.6,61.5,30.14,South,169,6.0,13.0,46,0.00,,,0.00,Wunderground v.1.15,2013-04-27 18:45:00,
2013-04-27 14:55:00,84.8,61.1,30.13,South,186,5.0,13.0,45,0.00,,,0.00,Wunderground v.1.15,2013-04-27 18:55:00,
2013-04-27 15:00:00,84.6,61.5,30.13,SSE,150,6.0,13.0,46,0.00,,,0.00,Wunderground v.1.15,2013-04-27 19:00:00,
2013-04-27 15:10:00,84.4,61.4,30.13,East,101,10.0,13.0,46,0.00,,,0.00,Wunderground v.1.15,2013-04-27 19:10:00,
2013-04-27 15:15:00,84.5,60.8,30.13,South,174,9.0,13.0,45,0.00,,,0.00,Wunderground v.1.15,2013-04-27 19:15:00,
2013-04-27 15:20:00,85.3,60.3,30.12,South,189,8.0,8.0,43,0.00,,,0.00,Wunderground v.1.15,2013-04-27 19:20:00,
2013-04-27 15:25:00,86.3,61.2,30.12,South,178,4.0,13.0,43,0.00,,,0.00,Wunderground v.1.15,2013-04-27 19:25:00,
2013-04-27 15:30:00,85.1,61.4,30.12,SE,126,6.0,13.0,45,0.00,,,0.00,Wunderground v.1.15,2013-04-27 19:30:00,
2013-04-27 15:40:00,84.3,61.3,30.11,South,188,6.0,6.0,46,0.00,,,0.00,Wunderground v.1.15,2013-04-27 19:40:00,
2013-04-27 15:45:00,84.3,61.3,30.11,SSE,148,6.0,15.0,46,0.00,,,0.00,Wunderground v.1.15,2013-04-27 19:45:00,
2013-04-27 15:55:00,84.5,60.2,30.11,ESE,110,8.0,19.0,44,0.00,,,0.00,Wunderground v.1.15,2013-04-27 19:55:00,
2013-04-27 16:00:00,84.9,59.9,30.11,South,175,8.0,11.0,43,0.00,,,0.00,Wunderground v.1.15,2013-04-27 20:00:00,
2013-04-27 16:10:00,84.4,60.1,30.10,SSE,150,7.0,7.0,44,0.00,,,0.00,Wunderground v.1.15,2013-04-27 20:10:00,
2013-04-27 16:15:00,84.1,60.5,30.10,South,179,9.0,9.0,45,0.00,,,0.00,Wunderground v.1.15,2013-04-27 20:15:00,
2013-04-27 16:20:00,84.6,60.3,30.10,SSW,196,7.0,7.0,44,0.00,,,0.00,Wunderground v.1.15,2013-04-27 20:20:00,
2013-04-27 16:25:00,84.3,60.0,30.10,SSE,147,8.0,10.0,44,0.00,,,0.00,Wunderground v.1.15,2013-04-27 20:25:00,
2013-04-27 16:35:00,83.9,59.7,30.10,SE,128,11.0,11.0,44,0.00,,,0.00,Wunderground v.1.15,2013-04-27 20:35:00,
2013-04-27 16:40:00,84.1,59.8,30.09,SSE,157,10.0,10.0,44,0.00,,,0.00,Wunderground v.1.15,2013-04-27 20:40:00,
2013-04-27 16:45:00,84.1,59.8,30.09,SSE,159,8.0,10.0,44,0.00,,,0.00,Wunderground v.1.15,2013-04-27 20:45:00,
2013-04-27 16:50:00,84.4,60.1,30.09,SE,142,7.0,9.0,44,0.00,,,0.00,Wunderground v.1.15,2013-04-27 20:50:00,
2013-04-27 16:55:00,84.2,60.6,30.09,SE,128,9.0,13.0,45,0.00,,,0.00,Wunderground v.1.15,2013-04-27 20:55:00,
2013-04-27 17:00:00,84.5,59.5,30.08,South,174,8.0,8.0,43,0.00,,,0.00,Wunderground v.1.15,2013-04-27 21:00:00,
2013-04-27 17:10:00,84.2,59.3,30.08,SSE,163,7.0,9.0,43,0.00,,,0.00,Wunderground v.1.15,2013-04-27 21:10:00,
2013-04-27 17:20:00,83.6,59.4,30.09,SE,146,9.0,10.0,44,0.00,,,0.00,Wunderground v.1.15,2013-04-27 21:20:00,
2013-04-27 17:25:00,83.7,58.8,30.08,South,190,10.0,10.0,43,0.00,,,0.00,Wunderground v.1.15,2013-04-27 21:25:00,
2013-04-27 17:30:00,83.5,58.6,30.08,SE,145,9.0,9.0,43,0.00,,,0.00,Wunderground v.1.15,2013-04-27 21:30:00,
2013-04-27 17:35:00,83.4,59.2,30.09,South,180,9.0,9.0,44,0.00,,,0.00,Wunderground v.1.15,2013-04-27 21:35:00,
2013-04-27 17:40:00,83.6,59.4,30.09,SSE,149,8.0,9.0,44,0.00,,,0.00,Wunderground v.1.15,2013-04-27 21:40:00,
2013-04-27 17:45:00,83.2,59.6,30.09,SE,136,9.0,11.0,45,0.00,,,0.00,Wunderground v.1.15,2013-04-27 21:45:00,
2013-04-27 17:55:00,83.0,59.5,30.09,SSW,193,7.0,9.0,45,0.00,,,0.00,Wunderground v.1.15,2013-04-27 21:55:00,
2013-04-27 18:00:00,82.8,59.3,30.09,SE,146,6.0,11.0,45,0.00,,,0.00,Wunderground v.1.15,2013-04-27 22:00:00,
2013-04-27 18:10:00,82.3,60.1,30.09,South,172,9.0,9.0,47,0.00,,,0.00,Wunderground v.1.15,2013-04-27 22:10:00,
2013-04-27 18:15:00,82.2,59.4,30.09,SSW,203,9.0,11.0,46,0.00,,,0.00,Wunderground v.1.15,2013-04-27 22:15:00,
2013-04-27 18:20:00,82.3,59.4,30.09,SSE,155,7.0,7.0,46,0.00,,,0.00,Wunderground v.1.15,2013-04-27 22:20:00,
2013-04-27 18:30:00,82.0,59.2,30.09,SSE,164,8.0,8.0,46,0.00,,,0.00,Wunderground v.1.15,2013-04-27 22:30:00,
2013-04-27 18:35:00,82.1,59.3,30.09,SSE,153,7.0,11.0,46,0.00,,,0.00,Wunderground v.1.15,2013-04-27 22:35:00,
2013-04-27 18:40:00,82.1,59.9,30.09,SSE,151,6.0,12.0,47,0.00,,,0.00,Wunderground v.1.15,2013-04-27 22:40:00,
2013-04-27 18:45:00,81.8,59.6,30.09,SSE,160,7.0,12.0,47,0.00,,,0.00,Wunderground v.1.15,2013-04-27 22:45:00,
2013-04-27 18:50:00,81.9,59.7,30.09,SE,132,6.0,11.0,47,0.00,,,0.00,Wunderground v.1.15,2013-04-27 22:50:00,
2013-04-27 19:00:00,81.1,59.6,30.09,SSE,160,8.0,12.0,48,0.00,,,0.00,Wunderground v.1.15,2013-04-27 23:00:00,
2013-04-27 19:10:00,80.7,58.6,30.09,SSE,159,8.0,8.0,47,0.00,,,0.00,Wunderground v.1.15,2013-04-27 23:10:00,
2013-04-27 19:15:00,80.5,59.6,30.08,South,191,7.0,11.0,49,0.00,,,0.00,Wunderground v.1.15,2013-04-27 23:15:00,
2013-04-27 19:20:00,80.3,59.4,30.09,SSE,157,6.0,11.0,49,0.00,,,0.00,Wunderground v.1.15,2013-04-27 23:20:00,
2013-04-27 19:25:00,80.0,59.7,30.09,SE,139,5.0,11.0,50,0.00,,,0.00,Wunderground v.1.15,2013-04-27 23:25:00,
2013-04-27 19:35:00,79.5,59.2,30.09,SSE,149,7.0,11.0,50,0.00,,,0.00,Wunderground v.1.15,2013-04-27 23:35:00,
2013-04-27 19:40:00,79.2,59.0,30.10,South,173,7.0,7.0,50,0.00,,,0.00,Wunderground v.1.15,2013-04-27 23:40:00,
2013-04-27 19:45:00,78.9,59.2,30.10,SSE,153,6.0,11.0,51,0.00,,,0.00,Wunderground v.1.15,2013-04-27 23:45:00,
2013-04-27 19:50:00,78.5,59.4,30.10,SSE,167,5.0,11.0,52,0.00,,,0.00,Wunderground v.1.15,2013-04-27 23:50:00,
2013-04-27 19:55:00,78.2,59.1,30.10,SSE,157,5.0,11.0,52,0.00,,,0.00,Wunderground v.1.15,2013-04-27 23:55:00,
2013-04-27 20:00:00,77.9,59.4,30.10,SSE,153,4.0,4.0,53,0.00,,,0.00,Wunderground v.1.15,2013-04-28 00:00:00,
2013-04-27 20:10:00,77.1,59.2,30.10,SSE,159,3.0,3.0,54,0.00,,,0.00,Wunderground v.1.15,2013-04-28 00:10:00,
2013-04-27 20:15:00,76.8,59.4,30.10,SSE,157,3.0,6.0,55,0.00,,,0.00,Wunderground v.1.15,2013-04-28 00:15:00,
2013-04-27 20:20:00,76.4,59.0,30.11,SSE,147,3.0,6.0,55,0.00,,,0.00,Wunderground v.1.15,2013-04-28 00:20:00,
2013-04-27 20:25:00,76.2,59.4,30.11,SSE,164,3.0,6.0,56,0.00,,,0.00,Wunderground v.1.15,2013-04-28 00:25:00,
2013-04-27 20:30:00,75.9,59.1,30.10,SSE,165,3.0,3.0,56,0.00,,,0.00,Wunderground v.1.15,2013-04-28 00:30:00,
2013-04-27 20:35:00,75.6,58.8,30.11,South,173,3.0,4.0,56,0.00,,,0.00,Wunderground v.1.15,2013-04-28 00:35:00,
2013-04-27 20:45:00,74.9,59.6,30.11,SSE,158,1.0,6.0,59,0.00,,,0.00,Wunderground v.1.15,2013-04-28 00:45:00,
2013-04-27 20:50:00,74.2,59.4,30.11,SSE,159,0.0,6.0,60,0.00,,,0.00,Wunderground v.1.15,2013-04-28 00:50:00,
2013-04-27 20:55:00,73.7,59.4,30.11,SSE,161,0.0,6.0,61,0.00,,,0.00,Wunderground v.1.15,2013-04-28 00:55:00,
2013-04-27 21:00:00,73.8,59.5,30.11,SSE,158,1.0,1.0,61,0.00,,,0.00,Wunderground v.1.15,2013-04-28 01:00:00,
2013-04-27 21:10:00,73.5,59.2,30.11,SSE,167,1.0,1.0,61,0.00,,,0.00,Wunderground v.1.15,2013-04-28 01:10:00,
2013-04-27 21:20:00,73.0,59.7,30.12,SSE,167,1.0,1.0,63,0.00,,,0.00,Wunderground v.1.15,2013-04-28 01:20:00,
2013-04-27 21:25:00,72.6,59.7,30.12,SSE,167,0.0,4.0,64,0.00,,,0.00,Wunderground v.1.15,2013-04-28 01:25:00,
2013-04-27 21:30:00,72.0,60.0,30.12,SSE,167,0.0,4.0,66,0.00,,,0.00,Wunderground v.1.15,2013-04-28 01:30:00,
2013-04-27 21:35:00,71.5,60.0,30.12,SSE,167,0.0,4.0,67,0.00,,,0.00,Wunderground v.1.15,2013-04-28 01:35:00,
2013-04-27 21:40:00,71.1,60.0,30.13,SSE,168,0.0,4.0,68,0.00,,,0.00,Wunderground v.1.15,2013-04-28 01:40:00,
2013-04-27 21:50:00,70.5,60.2,30.13,SSE,168,0.0,4.0,70,0.00,,,0.00,Wunderground v.1.15,2013-04-28 01:50:00,
2013-04-27 21:55:00,70.1,60.3,30.13,SSE,168,0.0,4.0,71,0.00,,,0.00,Wunderground v.1.15,2013-04-28 01:55:00,
2013-04-27 22:00:00,69.8,60.4,30.13,SSE,168,0.0,0.0,72,0.00,,,0.00,Wunderground v.1.15,2013-04-28 02:00:00,
2013-04-27 22:10:00,69.3,60.3,30.13,SSE,168,0.0,0.0,73,0.00,,,0.00,Wunderground v.1.15,2013-04-28 02:10:00,
2013-04-27 22:15:00,69.1,60.8,30.13,SSE,168,0.0,0.0,75,0.00,,,0.00,Wunderground v.1.15,2013-04-28 02:15:00,
2013-04-27 22:25:00,68.6,60.7,30.13,SSE,168,0.0,0.0,76,0.00,,,0.00,Wunderground v.1.15,2013-04-28 02:25:00,
2013-04-27 22:30:00,68.3,60.8,30.13,SSE,168,0.0,0.0,77,0.00,,,0.00,Wunderground v.1.15,2013-04-28 02:30:00,
2013-04-27 22:35:00,68.1,60.6,30.13,SSE,168,0.0,0.0,77,0.00,,,0.00,Wunderground v.1.15,2013-04-28 02:35:00,
2013-04-27 22:40:00,68.1,60.6,30.13,SSE,168,0.0,0.0,77,0.00,,,0.00,Wunderground v.1.15,2013-04-28 02:40:00,
2013-04-27 22:45:00,68.0,60.9,30.13,SSE,168,0.0,0.0,78,0.00,,,0.00,Wunderground v.1.15,2013-04-28 02:45:00,
2013-04-27 22:50:00,67.9,61.1,30.13,SSE,168,0.0,0.0,79,0.00,,,0.00,Wunderground v.1.15,2013-04-28 02:50:00,
2013-04-27 23:00:00,67.6,61.2,30.14,SSE,168,0.0,0.0,80,0.00,,,0.00,Wunderground v.1.15,2013-04-28 03:00:00,
2013-04-27 23:10:00,67.4,61.0,30.14,SSE,168,0.0,0.0,80,0.00,,,0.00,Wunderground v.1.15,2013-04-28 03:10:00,
2013-04-27 23:15:00,67.4,61.4,30.14,SSE,168,0.0,0.0,81,0.00,,,0.00,Wunderground v.1.15,2013-04-28 03:15:00,
2013-04-27 23:20:00,67.3,60.9,30.14,SSE,168,0.0,0.0,80,0.00,,,0.00,Wunderground v.1.15,2013-04-28 03:20:00,
2013-04-27 23:25:00,67.1,60.7,30.14,SSE,168,0.0,0.0,80,0.00,,,0.00,Wunderground v.1.15,2013-04-28 03:25:00,
2013-04-27 23:35:00,66.9,60.5,30.14,SSE,168,0.0,0.0,80,0.00,,,0.00,Wunderground v.1.15,2013-04-28 03:35:00,
2013-04-27 23:40:00,66.7,60.3,30.13,SSE,168,0.0,0.0,80,0.00,,,0.00,Wunderground v.1.15,2013-04-28 03:40:00,
2013-04-27 23:45:00,66.4,60.7,30.13,SSE,168,0.0,0.0,82,0.00,,,0.00,Wunderground v.1.15,2013-04-28 03:45:00,
2013-04-27 23:50:00,66.0,60.7,30.13,SSE,168,0.0,0.0,83,0.00,,,0.00,Wunderground v.1.15,2013-04-28 03:50:00,
2013-04-27 23:55:00,65.8,60.8,30.14,SSE,168,0.0,0.0,84,0.00,,,0.00,Wunderground v.1.15,2013-04-28 03:55:00,